When you browse on this site, cookies collect data to enhance your experience and personalize the content and advertising you see.
Visit our Privacy Policy to learn more. By continuing to use the site, you agree to this use of cookies and data.
  • In Austria
  • List of Countries
  • For 7 days
  • Water Temperature
  • Weather Map
  • News
  • Weather Widgets
  • user-avatar
    Login

    Hourly Weather Riomaggiore

    Today, 13 November, Wednesday

    Time Temperature Precipitation Wind Pressure Humidity
    00:00 +12°C° 1.3 mm 2 mps 736 mmHg 91%
    01:00 +10°C° 1.3 mm 2 mps 736 mmHg 90%
    02:00 +10°C° 0.6 mm 2 mps 736 mmHg 91%
    03:00 +10°C° 0.6 mm 2 mps 736 mmHg 92%
    04:00 +10°C° 0.6 mm 2 mps 736 mmHg 92%
    05:00 +10°C° 0.3 mm 2 mps 736 mmHg 92%
    06:00 +9°C° 0.3 mm 2 mps 736 mmHg 92%
    07:00 +9°C° 0.3 mm 3 mps 736 mmHg 91%
    08:00 +9°C° 0.1 mm 3 mps 736 mmHg 89%
    09:00 +10°C° 0.1 mm 2 mps 737 mmHg 87%
    10:00 +12°C° 0.1 mm 2 mps 737 mmHg 85%
    11:00 +13°C° 0 mm 2 mps 737 mmHg 78%
    12:00 +14°C° 0 mm 1 mps 738 mmHg 70%
    13:00 +15°C° 0 mm 1 mps 738 mmHg 63%
    14:00 +14°C° 0 mm 1 mps 738 mmHg 68%
    15:00 +13°C° 0 mm 1 mps 739 mmHg 72%
    16:00 +13°C° 0 mm 1 mps 739 mmHg 77%
    17:00 +12°C° 0 mm 1 mps 740 mmHg 80%
    18:00 +10°C° 0 mm 2 mps 740 mmHg 84%
    19:00 +9°C° 0 mm 2 mps 741 mmHg 88%
    20:00 +8°C° 0 mm 2 mps 742 mmHg 87%
    21:00 +9°C° 0 mm 1 mps 742 mmHg 87%
    22:00 +9°C° 0 mm 1 mps 743 mmHg 87%
    23:00 +9°C° 0 mm 1 mps 743 mmHg 87%

    Tomorrow, 14 November, Thursday

    Time Temperature Precipitation Wind Pressure Humidity
    00:00 +8°C° 0 mm 2 mps 743 mmHg 88%
    01:00 +7°C° 0 mm 2 mps 743 mmHg 88%
    02:00 +7°C° 0 mm 2 mps 744 mmHg 88%
    03:00 +7°C° 0 mm 2 mps 744 mmHg 87%
    04:00 +7°C° 0 mm 2 mps 744 mmHg 86%
    05:00 +7°C° 0 mm 3 mps 744 mmHg 85%
    06:00 +7°C° 0 mm 3 mps 745 mmHg 83%
    07:00 +7°C° 0 mm 3 mps 745 mmHg 82%
    08:00 +8°C° 0 mm 3 mps 745 mmHg 79%
    09:00 +10°C° 0 mm 3 mps 746 mmHg 76%
    10:00 +11°C° 0 mm 3 mps 746 mmHg 73%
    11:00 +12°C° 0.1 mm 3 mps 746 mmHg 71%
    12:00 +12°C° 0.1 mm 3 mps 746 mmHg 69%
    13:00 +13°C° 0.1 mm 3 mps 745 mmHg 67%
    14:00 +13°C° 0.1 mm 3 mps 745 mmHg 72%
    15:00 +12°C° 0.1 mm 4 mps 744 mmHg 77%
    16:00 +12°C° 0.1 mm 4 mps 744 mmHg 81%
    17:00 +10°C° 0.1 mm 5 mps 743 mmHg 83%
    18:00 +10°C° 0.1 mm 6 mps 743 mmHg 85%
    19:00 +9°C° 0.1 mm 7 mps 742 mmHg 86%
    20:00 +9°C° 2.1 mm 8 mps 742 mmHg 90%
    21:00 +10°C° 2.1 mm 8 mps 742 mmHg 93%
    22:00 +10°C° 2.1 mm 9 mps 741 mmHg 96%
    23:00 +10°C° 5 mm 9 mps 741 mmHg 97%

    Day after tomorrow, 15 November, Friday

    Time Temperature Precipitation Wind Pressure Humidity
    00:00 +9°C° 5 mm 10 mps 741 mmHg 97%
    01:00 +9°C° 5 mm 11 mps 740 mmHg 97%
    02:00 +10°C° 4.3 mm 9 mps 740 mmHg 97%
    03:00 +10°C° 4.3 mm 7 mps 740 mmHg 96%
    04:00 +12°C° 4.3 mm 5 mps 740 mmHg 96%
    05:00 +10°C° 1.9 mm 5 mps 741 mmHg 95%
    06:00 +11°C° 1.9 mm 4 mps 741 mmHg 95%
    07:00 +10°C° 1.9 mm 4 mps 741 mmHg 94%
    08:00 +8°C° 1.4 mm 4 mps 742 mmHg 92%
    09:00 +8°C° 1.4 mm 4 mps 742 mmHg 92%
    10:00 +9°C° 1.4 mm 3 mps 742 mmHg 92%
    11:00 +9°C° 1.3 mm 3 mps 743 mmHg 91%
    12:00 +7°C° 1.3 mm 4 mps 743 mmHg 91%
    13:00 +7°C° 1.3 mm 4 mps 743 mmHg 90%
    14:00 +7°C° 0.5 mm 4 mps 743 mmHg 90%
    15:00 +8°C° 0.5 mm 3 mps 743 mmHg 89%
    16:00 +8°C° 0.5 mm 3 mps 743 mmHg 89%
    17:00 +6°C° 0.1 mm 4 mps 743 mmHg 89%
    18:00 +6°C° 0.1 mm 4 mps 744 mmHg 89%
    19:00 +6°C° 0.1 mm 5 mps 744 mmHg 89%
    20:00 +6°C° 0.2 mm 5 mps 745 mmHg 89%
    21:00 +6°C° 0.2 mm 5 mps 745 mmHg 90%
    22:00 +6°C° 0.2 mm 5 mps 746 mmHg 90%
    23:00 +6°C° 0.6 mm 5 mps 746 mmHg 91%

    16 November, Saturday

    Time Temperature Precipitation Wind Pressure Humidity
    00:00 +7°C° 0.6 mm 4 mps 746 mmHg 92%
    01:00 +7°C° 0.6 mm 4 mps 747 mmHg 93%
    02:00 +7°C° 0.6 mm 4 mps 747 mmHg 94%
    03:00 +8°C° 0.6 mm 3 mps 748 mmHg 94%
    04:00 +8°C° 0.6 mm 3 mps 748 mmHg 94%
    05:00 +8°C° 0.2 mm 3 mps 748 mmHg 94%
    06:00 +8°C° 0.2 mm 3 mps 749 mmHg 93%
    07:00 +7°C° 0.2 mm 3 mps 749 mmHg 92%
    08:00 +8°C° 0.1 mm 3 mps 749 mmHg 91%
    09:00 +9°C° 0.1 mm 3 mps 750 mmHg 89%
    10:00 +10°C° 0.1 mm 3 mps 750 mmHg 88%
    11:00 +10°C° 0.3 mm 3 mps 750 mmHg 86%
    12:00 +10°C° 0.3 mm 3 mps 749 mmHg 85%
    13:00 +11°C° 0.3 mm 3 mps 749 mmHg 84%
    14:00 +10°C° 0.4 mm 3 mps 749 mmHg 85%
    15:00 +10°C° 0.4 mm 3 mps 749 mmHg 86%
    16:00 +10°C° 0.4 mm 4 mps 749 mmHg 87%
    17:00 +8°C° 0.8 mm 4 mps 748 mmHg 88%
    18:00 +8°C° 0.8 mm 4 mps 748 mmHg 89%
    19:00 +7°C° 0.8 mm 5 mps 747 mmHg 90%
    20:00 +7°C° 1.5 mm 5 mps 747 mmHg 90%
    21:00 +7°C° 1.5 mm 5 mps 746 mmHg 91%
    22:00 +6°C° 1.5 mm 5 mps 746 mmHg 91%
    23:00 +7°C° 0.9 mm 5 mps 745 mmHg 91%

    17 November, Sunday

    Time Temperature Precipitation Wind Pressure Humidity
    00:00 +7°C° 0.9 mm 5 mps 744 mmHg 90%
    01:00 +8°C° 0.9 mm 5 mps 743 mmHg 89%
    02:00 +8°C° 0.7 mm 6 mps 742 mmHg 89%
    03:00 +8°C° 0.7 mm 7 mps 741 mmHg 89%
    04:00 +7°C° 0.7 mm 8 mps 741 mmHg 88%
    05:00 +7°C° 0.2 mm 8 mps 740 mmHg 87%
    06:00 +9°C° 0.2 mm 8 mps 740 mmHg 86%
    07:00 +9°C° 0.2 mm 8 mps 739 mmHg 85%
    08:00 +9°C° 1.5 mm 7 mps 739 mmHg 86%
    09:00 +10°C° 1.5 mm 7 mps 738 mmHg 87%
    10:00 +10°C° 1.5 mm 7 mps 738 mmHg 88%
    11:00 +10°C° 0.2 mm 6 mps 737 mmHg 87%
    12:00 +12°C° 0.2 mm 5 mps 736 mmHg 86%
    13:00 +12°C° 0.2 mm 5 mps 735 mmHg 85%
    14:00 +12°C° 1.1 mm 4 mps 735 mmHg 87%
    15:00 +11°C° 1.1 mm 4 mps 735 mmHg 89%
    16:00 +10°C° 1.1 mm 4 mps 736 mmHg 91%
    17:00 +10°C° 1.1 mm 4 mps 736 mmHg 91%
    18:00 +10°C° 1.1 mm 4 mps 737 mmHg 92%
    19:00 +10°C° 1.1 mm 4 mps 737 mmHg 93%
    20:00 +10°C° 0.2 mm 3 mps 738 mmHg 94%
    21:00 +10°C° 0.2 mm 3 mps 739 mmHg 95%
    22:00 +10°C° 0.2 mm 3 mps 740 mmHg 95%
    23:00 +10°C° 0.6 mm 4 mps 740 mmHg 96%

    18 November, Monday

    Time Temperature Precipitation Wind Pressure Humidity
    00:00 +10°C° 0.6 mm 4 mps 741 mmHg 97%
    01:00 +9°C° 0.6 mm 5 mps 741 mmHg 97%
    02:00 +9°C° 0.3 mm 5 mps 742 mmHg 95%
    03:00 +9°C° 0.3 mm 6 mps 743 mmHg 93%
    04:00 +9°C° 0.3 mm 6 mps 743 mmHg 91%
    05:00 +9°C° 0.1 mm 6 mps 744 mmHg 89%
    06:00 +9°C° 0.1 mm 5 mps 744 mmHg 88%
    07:00 +10°C° 0.1 mm 4 mps 745 mmHg 87%
    08:00 +10°C° 0.2 mm 5 mps 745 mmHg 87%
    09:00 +10°C° 0.2 mm 5 mps 746 mmHg 88%
    10:00 +12°C° 0.2 mm 5 mps 746 mmHg 88%
    11:00 +12°C° 0.5 mm 5 mps 746 mmHg 87%
    12:00 +12°C° 0.5 mm 5 mps 746 mmHg 86%
    13:00 +12°C° 0.5 mm 5 mps 746 mmHg 85%
    14:00 +11°C° 3.4 mm 6 mps 746 mmHg 87%
    15:00 +10°C° 3.4 mm 6 mps 746 mmHg 89%
    16:00 +10°C° 3.4 mm 6 mps 746 mmHg 91%
    17:00 +10°C° 4.1 mm 5 mps 746 mmHg 93%
    18:00 +11°C° 4.1 mm 4 mps 746 mmHg 95%
    19:00 +11°C° 4.1 mm 3 mps 746 mmHg 97%
    20:00 +11°C° 3.4 mm 3 mps 746 mmHg 97%
    21:00 +11°C° 3.4 mm 3 mps 746 mmHg 97%
    22:00 +11°C° 3.4 mm 4 mps 747 mmHg 97%
    23:00 +11°C° 3 mm 4 mps 747 mmHg 96%
    Show more